Tracking 20715 objects as of 27-May-2020
HD Live streaming from Space Station
objects crossing your sky now

FENGYUN 1C DEB

Track FENGYUN 1C DEB now!
10-day predictions


NORAD ID: 33666
Int'l Code: 1999-025DFB
Perigee: 633.0 km
Apogee: 743.2 km
Inclination: 98.9 °
Period: 98.4 minutes
Semi major axis: 7059 km
RCS: 0.0116 m2 (small)
Launch date: May 10, 1999
Source: People's Republic of China (PRC)
Launch site: Taiyaun Space Center, China (TSC)

Note: This is SATELLITE DEBRIS
aabbcc
Your satellite tracking list
Your tracking list is empty




NASA's NSSDC Master Catalog

Two Line Element Set (TLE):
1 33666U 99025DFB 20140.61789559 +.00001581 +00000-0 +30081-3 0  9996
2 33666 098.8676 065.8860 0078031 113.8305 009.1920 14.63789442367255
Source of the keplerian elements: AFSPC